This is the latest recevied weather packets stored in our database for station/object W5COG. If no packets are shown the sender has not sent any weather packets the latest 1 day(s).
| Time | Temp. | Humidity | Pressure | Rain* | Wind** | Luminosity | Snow |
|---|---|---|---|---|---|---|---|
| 1778010028 | 12.22° C | 70% | 1008 hPa | 0 mm | 2.24 m/s, 29° | 109 W/m² | - |
| 1778009728 | 12.22° C | 69% | 1008 hPa | 0 mm | 1.79 m/s, 33° | 124 W/m² | - |
| 1778009428 | 12.22° C | 71% | 1007.9 hPa | 0 mm | 2.24 m/s, 34° | 101 W/m² | - |
| 1778009128 | 12.22° C | 71% | 1007.8 hPa | 0 mm | 1.79 m/s, 39° | 89 W/m² | - |
| 1778008828 | 12.22° C | 70% | 1007.9 hPa | 0 mm | 1.79 m/s, 31° | 97 W/m² | - |
| 1778007936 | 12.78° C | 69% | 1007.6 hPa | 0 mm | 2.68 m/s, 41° | 116 W/m² | - |
| 1778007628 | 12.78° C | 70% | 1007.5 hPa | 0 mm | 2.24 m/s, 37° | 125 W/m² | - |
| 1778007328 | 12.22° C | 69% | 1007.4 hPa | 0 mm | 2.24 m/s, 37° | 127 W/m² | - |
| 1778007028 | 12.78° C | 69% | 1007.3 hPa | 0 mm | 2.68 m/s, 37° | 140 W/m² | - |
| 1778006728 | 12.78° C | 70% | 1007.1 hPa | 0 mm | 2.68 m/s, 45° | 145 W/m² | - |
| 1778006428 | 12.78° C | 71% | 1007 hPa | 0 mm | 2.24 m/s, 35° | 160 W/m² | - |
| 1778006128 | 12.78° C | 74% | 1007.2 hPa | 0 mm | 1.79 m/s, 49° | 162 W/m² | - |
| 1778005828 | 12.78° C | 74% | 1007.4 hPa | 0 mm | 2.68 m/s, 42° | 117 W/m² | - |
| 1778005528 | 12.78° C | 74% | 1007.4 hPa | 0 mm | 1.79 m/s, 33° | 109 W/m² | - |
| 1778005228 | 12.78° C | 75% | 1007.2 hPa | 0 mm | 1.79 m/s, 35° | 124 W/m² | - |
| 1778004928 | 12.78° C | 76% | 1007.3 hPa | 0 mm | 1.79 m/s, 49° | 96 W/m² | - |
| 1778004628 | 12.78° C | 76% | 1007.3 hPa | 0 mm | 2.24 m/s, 32° | 122 W/m² | - |
| 1778004327 | 12.78° C | 75% | 1007.4 hPa | 0 mm | 2.24 m/s, 39° | 106 W/m² | - |
| 1778004027 | 12.78° C | 77% | 1007.3 hPa | 0 mm | 1.34 m/s, 12° | 123 W/m² | - |
| 1778003728 | 12.78° C | 77% | 1007.3 hPa | 0 mm | 2.24 m/s, 57° | 130 W/m² | - |
| 1778003428 | 12.78° C | 77% | 1007.3 hPa | 0 mm | 2.68 m/s, 56° | 96 W/m² | - |
| 1778003128 | 12.78° C | 77% | 1007 hPa | 0 mm | 2.68 m/s, 51° | 93 W/m² | - |
| 1778002828 | 12.78° C | 78% | 1006.8 hPa | 0 mm | 2.24 m/s, 45° | 104 W/m² | - |
| 1778002527 | 12.78° C | 78% | 1006.6 hPa | 0 mm | 1.79 m/s, 41° | 105 W/m² | - |
| 1778002227 | 12.78° C | 78% | 1006.6 hPa | 0 mm | 1.79 m/s, 33° | 99 W/m² | - |
* Rain latest hour (hover to see other rain measurements)
** Current wind speed in m/s (hover to see current wind gust speed)